cliquez pour ajouter le site Runraid à vos favoris  English version (google)  Retour à l'accueil Ecrire à l'auteur du site Runraid : Michel Jourdan



Les prochaines courses


Les derniers résultats

cliquez pour visualiser la page complète relatant la chronologie des éruptions du Piton de la Fournaise
éruptions Piton de la Fournaise


Ile de La Réunion

 Diagonale des Fous 

Ecrire au créateur du site : Michel Jourdan
Contact


2019-05-18 - 10km nocturne de St Denis

Pour consulter le palmarès d'un coureur, un clic sur son nom !

Vous avez des remarques, corrections, ... sur ces résultats , un clic sur --> pour me transmettre toute information concernant les classements


10km nocturne de St Denis - 2019 : classement des 485 finishers
Place Nom Temps Cat. Club Sexe Clt/cat.
Place Nom Temps Cat. Club Sexe Clt/cat.
1 RONO STANLEY KURGAT 00:28:51 ESM M 1 ESM 272
2 CADET JEAN MARIE 00:32:43 V1M AC ENTENTE M 1 V1M 273
3 TRULES GERALDO 00:33:34 SEM ACSP M 1 SEM 334
4 SAINT PERON TITOUAN 00:33:49 SEM COSPI M 2 SEM 91
5 JASMIN LUDOVIC 00:33:55 SEM CAPP M 3 SEM 289
6 CHAMAND MICKAEL 00:34:02 V1M DA M 2 V1M 233
7 NJOROGE MARTHA WANJIKU 00:34:43 SEF F 1ere F 271
8 CADET WENDY 00:35:02 SEM COSPI M 4 SEM 263
9 ROBERT JEAN LOUIS 00:35:04 V1M ACSGS M 3 V1M 264
10 GIGAN JEAN MICHEL 00:35:06 V1M COSPI M 4 V1M 378
11 PANIANDY JeRoME 00:35:07 SEM CASM M 5 SEM 208
12 ALAMELE YANNIS 00:35:29 SEM AC ENTENTE M 6 SEM 420
13 ESSOB PATRICK 00:35:50 V1M CAPP M 5 V1M 383
14 BERRICHON FReDeRIC 00:35:52 V1M CAPP M 6 V1M 177
15 JEAN BAPTISTE LEO 00:36:10 JUM AC ENTENTE M 1 JUM 169
16 GEOFFROY FRANCK 00:36:44 V2M DA M 1 V2M 402
17 CHEFIARE ETIENNE 00:36:52 V2M AC ENTENTE M 2 V2M 422
18 LEOCADIE Rene Paul 00:36:58 V1M M 7 V1M 727
19 GONTHIER GIOVANNI 00:37:00 SEM M 7 SEM 314
20 BACH CLeMENT 00:37:02 SEM M 8 SEM 342
21 HOARAU Louis 00:37:14 CAM M 1 CAM 729
22 BOUCHARD GUILLAUME 00:37:22 SEM M 9 SEM 141
23 SADZOUTE RICHARD 00:37:38 V2M RUN ODYSSEA M 3 V2M 396
24 DRAZIN PASCAL 00:37:39 V1M M 8 V1M 216
25 MUGUEL PASCAL 00:37:39 V1M BNA M 9 V1M 90
26 PIUZA LEONOR 00:37:43 V1F AC ENTENTE F 2 F - 1 V1F 170
27 TOULCANON ALEXANDRE 00:37:58 SEM M 10 SEM 446
28 MORISCOT NICOLAS 00:38:05 SEM DA M 11 SEM 394
29 PICARD VINCENT 00:38:06 SEM M 12 SEM 444
30 BARDEUR MICKAEL 00:38:25 V1M M 10 V1M 219
31 SOOBEN LAVAL CLIFF 00:38:31 V2M M 4 V2M 182
32 ZITTE RAPHAEL 00:38:36 SEM CSSDA M 13 SEM 309
33 JEAN PATRICK 00:38:39 V1M M 11 V1M 129
34 MAURY CEDRIC 00:38:44 V1M RUN ODYSSEA M 12 V1M 160
35 DERAND DELPHINE 00:38:52 SEF AC ENTENTE F 3 F - 2 SEF 419
36 BILLARD JEROME 00:39:04 SEM TCSA M 14 SEM 325
37 TRIHAN MALO 00:39:08 V2M ACSP M 5 V2M 253
38 BADe BRYAN 00:39:12 SEM M 15 SEM 146
39 AUBRAS JEAN CHRISTY 00:39:13 V2M M 6 V2M 425
40 TOURE JEAN MARC 00:39:20 V1M RUN O2 974 M 13 V1M 349
41 DROZO YANNICK 00:39:22 V1M DA M 14 V1M 107
42 ASSON OLIVIER 00:39:26 SEM M 16 SEM 406
43 HOAREAU CeDRIC 00:39:26 SEM M 17 SEM 154
44 PONGERARD MATHEW 00:39:28 SEM M 18 SEM 142
45 BOUTAREK KARIM 00:39:29 V1M DENIV M 15 V1M 86
46 KAISSE JEROME 00:39:33 V1M M 16 V1M 143
47 COURTOIS Kevin 00:39:34 SEM M 19 SEM 499
48 VIDOT YANNICK 00:39:40 V1M BNA M 17 V1M 371
49 DUBARD EMMANUEL 00:39:54 SEM M 20 SEM 376
50 RIVIERE MICHAEL 00:40:09 SEM M 21 SEM 152
51 DREINAZA THIERRY 00:40:12 SEM M 22 SEM 417
52 SANGELLE DAVID 00:40:17 V1M AJAC M 18 V1M 367
53 CALPETARD JEAN FABRICE 00:40:29 V1M DA M 19 V1M 460
54 HIVANHOE SAMUEL 00:40:34 SEM M 23 SEM 285
55 SAMSORA FREDERIC 00:40:35 V1M STASA M 20 V1M 335
56 DHESSE LUDOVIC 00:40:36 V1M AC ENTENTE M 21 V1M 464
57 BEBON JEAN PIETRICK 00:40:48 V1M M 22 V1M 43
58 HODGI CHANTAL 00:40:51 V2F AC ENTENTE F 4 F - 1 V2F 171
59 DOSITE JEAN CHARLES 00:40:58 V1M C.A.S.S. M 23 V1M 463
60 MACORAL CHARLES HENRY 00:40:59 V2M DENIV M 7 V2M 147
61 PICARD ERICK 00:41:03 V2M RDB M 8 V2M 44
62 BARRET THIERRY ANSELME 00:41:06 V1M M 24 V1M 71
63 DIJOUX FABIEN 00:41:15 SEM M 24 SEM 203
64 ARMAND JEAN CHRISTOPHE 00:41:17 V1M M 25 V1M 327
65 LEBON Kevin 00:41:20 SEM M 25 SEM 498
66 FADUILA HAFAITAHOU 00:41:20 SEM M 26 SEM 41
67 TURPIN JeReMY 00:41:24 SEM M 27 SEM 202
68 LEOCADIE JEAN LOUIS 00:41:25 V2M CAPP M 9 V2M 110
69 MOUTOUROUVIN LOIC 00:41:27 SEM M 28 SEM 267
70 TREBEL CARMEL 00:41:28 SEF CAPP F 5 F - 3 SEF 126
71 PLANTE BRUNO 00:41:34 SEM M 29 SEM 224
72 AFA Jean Philippe 00:41:40 V1M M 26 V1M 496
73 PINK JEAN CeDRIC 00:41:45 SEM M 30 SEM 239
74 THOMAS GUY NOEL 00:41:55 SEM BNA M 31 SEM 213
75 RAMIN FLAVIA 00:41:58 ESF F 6 F - 1 ESF 491
76 MOUTOUSSAMY JULIEN 00:42:01 SEM M 32 SEM 9
77 PARASSOURAMIN Pascal 00:42:06 V1M M 27 V1M 736
78 WAGNER JULIEN 00:42:10 SEM M 33 SEM 495
79 TORINIERE BRUNO 00:42:20 V1M CAPP M 28 V1M 246
80 AUGUSTE Aymeric 00:42:25 JUM M 2 JUM 456
81 HOARAU DAVID 00:42:26 SEM M 34 SEM 131
82 KOO PIN HIN YASSIN 00:42:35 SEM M 35 SEM 341
83 MOUTIEN STePHANE 00:42:36 V1M M 29 V1M 321
84 HOAREAU PASCAL 00:42:38 SEM M 36 SEM 240
85 LEE SONG YIN LUCAS 00:42:43 CAM DENIV M 2 CAM 319
86 LEE SONG YIN GINO 00:42:43 V1M DENIV M 30 V1M 320
87 FELD SYLVAIN 00:42:46 V2M M 10 V2M 133
88 PIANEZZE JORIS 00:42:49 SEM M 37 SEM 17
89 BODZEN NICOLAS 00:42:56 SEM M 38 SEM 295
90 KEMPF GUILLAUME 00:42:59 SEM M 39 SEM 57
91 BENARD YVES 00:42:59 V1M M 31 V1M 204
92 GASNOT Maxime 00:43:00 SEM M 40 SEM 723
93 FONTAINE JEAN STEPHANE 00:43:00 V1M DA M 32 V1M 187
94 MASSAIN JACQUES 00:43:03 V3M BNA M 1 V3M 395
95 GUYOT DANIEL 00:43:12 V3M M 2 V3M 13
96 LE KHANH 00:43:15 V1M ACSP M 33 V1M 373
97 ALAMELOU PATRICK 00:43:16 V2M M 11 V2M 345
98 DELMAS CHRISTOPHE 00:43:17 V2M BNA M 12 V2M 411
99 GRONDIN DIDIER 00:43:18 V1M M 34 V1M 366
100 NATIVEL ROMAIN 00:43:23 CAM CTBP M 3 CAM 436
101 EVARNE CHRISTIAN 00:43:26 V2M M 13 V2M 458
102 NERINA IDRISS 00:43:31 SEM M 41 SEM 252
103 FILAIN CEDRIC 00:43:34 SEM M 42 SEM 470
104 COUDERT JEROME 00:43:34 V1M M 35 V1M 166
105 VALETTE CLeMENT 00:43:36 SEM M 43 SEM 55
106 CLAIN GILBERT 00:43:41 V2M RDB M 14 V2M 104
107 ROBERT JEAN WILLY 00:43:42 SEM STASA M 44 SEM 329
108 BERTHELOT FRANCK 00:43:42 V1M M 36 V1M 135
109 TAURINES CLAIRE 00:43:43 SEF ACSP F 7 F - 4 SEF 209
110 PAYET PATRICK 00:43:44 V1M M 37 V1M 206
111 VANWALSCAPPEL FReDeRIC 00:43:47 SEM M 45 SEM 157
112 HOAREAU HENRI JOSe 00:43:49 V2M CAPC M 15 V2M 155
113 BRUTEL JULIEN 00:43:52 SEM M 46 SEM 389
114 DUMONT BERNARD 00:43:58 V1M M 38 V1M 19
115 GRONDIN Guillaume 00:43:59 SEM M 47 SEM 724
116 CHAMBRY FABIEN 00:44:00 V1M M 39 V1M 489
117 BARRET DANIEL 00:44:02 V1M TCSA M 40 V1M 241
118 SAUTRON FREDDY 00:44:03 SEM TCSA M 48 SEM 236
119 ASSING BERTRAND 00:44:03 V1M RUN O2 974 M 41 V1M 153
120 DELVOYE STEPHANIE 00:44:05 V1F RUN O2 974 F 8 F - 2 V1F 37
121 MOREL SYLVAIN 00:44:08 SEM M 49 SEM 448
122 BARATEAU LUC 00:44:12 JUM M 3 JUM 47
123 MONCEYRON ERIC 00:44:12 V2M TPC M 16 V2M 62
124 BOOLAKY VANESSA 00:44:12 SEF CTBP F 9 F - 5 SEF 360
125 MAILLOT RUDY 00:44:12 SEM M 50 SEM 33
126 RIVIERE DOMINIQUE 00:44:16 V2M M 17 V2M 45
127 THOMAS LUDOVIC 00:44:16 ESM M 2 ESM 199
128 PATISSIER BRYAN KeVIN 00:44:18 SEM M 51 SEM 128
129 CLAIN JACKSON 00:44:19 SEM M 52 SEM 173
130 AH HING SONNY 00:44:32 V2M M 18 V2M 179
131 LEFEVRE CHRISTIAN 00:44:34 V2M STASA M 19 V2M 486
132 LEOCADIE LUCIEN 00:44:45 V2M RDB M 20 V2M 346
133 DE LARICHAUDY JeReMIE MICKAeL 00:44:48 SEM BNA M 53 SEM 306
134 SINAMA MOUTAMA JEAN PATRICK 00:44:52 V1M M 42 V1M 75
135 MEILHAC OLIVIER 00:44:55 V1M M 43 V1M 138
136 SAUTRON BERNARD 00:45:13 V1M M 44 V1M 56
137 GREGOIRE Xavier 00:45:15 SEM M 54 SEM 720
138 DUVAL QUENTIN 00:45:22 SEM M 55 SEM 165
139 BARILLET CHRISTOPHE 00:45:29 SEM M 56 SEM 39
140 CLAIN HERMANN 00:45:35 SEM M 57 SEM 250
141 BRANCARD IGNACE JOSEPH 00:45:41 V2M M 21 V2M 149
142 MARDAMA NAYAGOM SULLY 00:45:43 V2M M 22 V2M 439
143 ERIMA DIMITRI 00:45:44 SEM M 58 SEM 276
144 GALMAR CHRISTOPHE 00:45:48 V1M M 45 V1M 296
145 CALPETARD MARIE SANDRINE 00:45:51 V1F DA F 10 F - 3 V1F 461
146 M'TIMA JEAN RENE 00:45:52 V1M M 46 V1M 471
147 AMPLE LAURENT 00:45:55 V1M ACVSS M 47 V1M 404
148 FOUDRIN JEAN ROLAND 00:45:59 SEM M 59 SEM 302
149 BAROSSI BERTRAND 00:46:00 V1M M 48 V1M 136
150 LADOUCH CHRISTOPHE 00:46:06 V1M M 49 V1M 722
151 BEASLAY Floryan 00:46:07 SEM M 60 SEM 721
152 PAUSE NOE 00:46:07 V1M M 50 V1M 256
153 CLAPIER HENRI 00:46:09 V2M M 23 V2M 432
154 JESSU Eric 00:46:13 V1M M 51 V1M 497
155 RAJAOMIHEVITRA ALSON 00:46:14 V1M RCSD M 52 V1M 403
156 CHANE TO SeBASTIEN 00:46:15 SEM RCSD M 61 SEM 318
157 MULOT JOSEPH JOHNY 00:46:22 V1M RDB M 53 V1M 244
158 CREIGNOU ANTONIN 00:46:30 SEM M 62 SEM 282
159 CLAIN JULES 00:46:38 V2M M 24 V2M 167
160 MARIE THeAU 00:46:41 SEM M 63 SEM 186
161 CARO ELINDA 00:46:48 SEF CAPP F 11 F - 6 SEF 10
162 TOSSAM GUY NOeL 00:46:54 V1M M 54 V1M 226
163 ROBERT YANN 00:46:55 SEM TCSA M 64 SEM 235
164 SIMME JEAN PRISCA ,ELSON 00:47:09 SEM CASM M 65 SEM 200
165 BARBOTIN BENOIT 00:47:12 V1M M 55 V1M 261
166 FILAUMART PATRICK 00:47:12 V2M M 25 V2M 99
167 MEEUS Marie 00:47:14 SEF F 12 F - 7 SEF 735
168 HOARAU JEROME 00:47:22 SEM M 66 SEM 161
169 SUF KHALEED 00:47:27 SEM M 67 SEM 34
170 MUSIYAN ANTHONY 00:47:32 V1M M 56 V1M 31
171 POLLUX FREDERIC 00:47:34 SEM CAPOSS M 68 SEM 324
172 BLANLOEIL GUILLAUME 00:47:38 SEM M 69 SEM 482
173 CORALIN REGIS 00:47:46 V3M M 3 V3M 269
174 DUCROS ALBAN 00:47:47 SEM M 70 SEM 472
175 PITOU JEREMY 00:47:47 SEM M 71 SEM 408
176 EPILO S JEAN EUGeNE 00:47:48 V2M C.A.S.S. M 26 V2M 399
177 TONRU SYVAIN 00:47:49 V1M M 57 V1M 365
178 GEVIA JEAN PIERRE 00:47:51 V2M M 27 V2M 455
179 GOMEZ DOMINIQUE 00:47:56 V2F AC ENTENTE F 13 F - 2 V2F 351
180 THOMAS JEANMANOLITO 00:47:58 V1M BNA M 58 V1M 303
181 CHANE THIME JEAN FRANCOIS 00:48:01 V2M M 28 V2M 416
182 DELARBRE CYRIL 00:48:01 V1M M 59 V1M 11
183 TOUSSAINT TOMMY 00:48:04 ESM M 3 ESM 393
184 VIMBOULY JEAN BERNARD 00:48:06 V1M M 60 V1M 84
185 OULEDI EXPeDIT 00:48:11 V1M COSPI M 61 V1M 277
186 VALLY JEAN HUGUES 00:48:16 V2M TCSA M 29 V2M 487
187 DULAU VIOLAINE 00:48:21 V1F BNA F 14 F - 4 V1F 137
188 DURAND ISABELLE 00:48:21 V1F BNA F 15 F - 5 V1F 118
189 TOULON Stephane 00:48:25 SEM M 72 SEM 734
190 DEPUILLE FABRICE 00:48:26 V1M M 62 V1M 194
191 CARTON NOeL 00:48:30 V3M M 4 V3M 344
192 LOGORAS William 00:48:33 V2M M 30 V2M 730
193 DESFOSSEZ LOiC 00:48:33 SEM M 73 SEM 480
194 DIOTEL NICOLAS 00:48:35 SEM M 74 SEM 414
195 LEBARBENCHON CAMILLE 00:48:36 SEM M 75 SEM 113
196 GENNA ENRIC 00:48:37 SEM M 76 SEM 145
197 LAI ONG TEUNG ALEXANDRE 00:48:39 SEM M 77 SEM 409
198 FILAIN STEPHANE 00:48:41 V1M M 63 V1M 469
199 POLEYA KeVIN 00:48:43 SEM M 78 SEM 479
200 GUIRONNET JeRoME 00:48:44 SEM M 79 SEM 443
201 NOURRY FREDDY 00:48:47 SEM M 80 SEM 352
202 CHERMOUD JIHAD 00:48:49 SEF F 16 F - 8 SEF 151
203 GEVIA DANIEL 00:49:00 V2M M 31 V2M 490
204 CASTEL FREDDY 00:49:01 V2M CASM M 32 V2M 354
205 SIVA AMARAVADI 00:49:04 SEF F 17 F - 9 SEF 258
206 BEGUE Jean Bernard 00:49:04 V2M M 33 V2M 726
207 TIFEST SAMIA 00:49:04 V2F COSPI F 18 F - 3 V2F 304
208 DELAUNAY MESSANE 00:49:05 SEF F 19 F - 10 SEF 195
209 PICARD JeRoME 00:49:14 SEM M 81 SEM 294
210 THERINCA HUBERT SAMUEL 00:49:16 SEM M 82 SEM 231
211 LABBE PASCAL 00:49:16 V2M DENIV M 34 V2M 223
212 VILDEMAN KeVIN 00:49:17 SEM M 83 SEM 111
213 MONDISSA DANIEL 00:49:23 V2M M 35 V2M 478
214 HUG LUCILE 00:49:24 ESF RCSD F 20 F - 2 ESF 82
215 CHANE SEE CHU MARLENE 00:49:26 V3F CAPC F 21 F - 1 V3F 328
216 COQUELET Rudy 00:49:31 SEM M 84 SEM 732
217 BEGUE EDDY 00:49:37 V2M M 36 V2M 190
218 GILBERT ANNE LISE 00:49:38 SEF F 22 F - 11 SEF 254
219 RIVIERE JEAN PATRICK 00:49:45 V2M DA M 37 V2M 249
220 ATCHAPA PHILIBERT 00:49:51 V1M M 64 V1M 339
221 OULEDI MARIE RENeE 00:50:02 SEF COSPI F 23 F - 12 SEF 280
222 CALOGINE NICOLAS 00:50:05 SEM M 85 SEM 148
223 THOMAS JEAN JERRY 00:50:05 V2M BNA M 38 V2M 222
224 DEJEAN JULIEN 00:50:06 CAM AC ENTENTE M 4 CAM 421
225 SAMBINGA ARNAUD 00:50:07 SEM M 86 SEM 477
226 NATIVEL FREDERIC 00:50:09 V1M M 65 V1M 483
227 BRAVIN AURELIE 00:50:15 SEF F 24 F - 13 SEF 101
228 BELLUE FLORIAN 00:50:21 SEM M 87 SEM 139
229 LEANDRE CATHERINE 00:50:27 V1F F 25 F - 6 V1F 433
230 GUVEN ALBIN 00:50:28 SEM M 88 SEM 93
231 BARRET BeATRICE 00:50:33 V1F TCSA F 26 F - 7 V1F 242
232 VAITILINGOM BeNeDICTE 00:50:34 ESF AC ENTENTE F 27 F - 3 ESF 127
233 HOAREAU GWENDOLINE 00:50:38 SEF CASM F 28 F - 14 SEF 288
234 RIVIERE ARTHUR 00:50:42 CAM M 5 CAM 387
235 SOLe BRYAN 00:50:44 JUM ACM M 4 JUM 340
236 BOUILLAUD YOANN 00:50:44 SEM M 89 SEM 361
237 TOUSSAINT MIREILLE 00:50:44 V1F F 29 F - 8 V1F 15
238 LORRAINE GUY THIERRY 00:50:47 V2M M 39 V2M 400
239 WAN TAN YUE CHRISTINE 00:50:48 V1F F 30 F - 9 V1F 311
240 LAW TCHI KUN JEAN BERNARD 00:50:49 V2M DENIV M 40 V2M 221
241 SINIMALE SOSTHENE 00:50:49 V3M M 5 V3M 355
242 NAZE LUCAS 00:50:51 ESM M 4 ESM 410
243 LEPERLIER GEORGET VINCENT 00:50:52 V2M STASA M 41 V2M 331
244 MASSON SANDRA 00:50:55 SEF F 31 F - 15 SEF 317
245 COLAS DES FRANCS HeLeNE 00:50:58 SEF F 32 F - 16 SEF 300
246 VICTORINE YANIS 00:51:03 V1M CSSDA M 66 V1M 316
247 BODIOU HADRIEN 00:51:04 SEM M 90 SEM 220
248 PANEHOU BRUNO 00:51:05 V2M M 42 V2M 465
249 CALOGINE FREDERIC 00:51:19 SEM M 91 SEM 144
250 FONTAINE CHRISTIANE 00:51:25 V2F BNA F 33 F - 4 V2F 305
251 NOEL SONIA 00:51:29 V1F STASA F 34 F - 10 V1F 337
252 MULOT JENNIFER 00:51:36 CAF AC ENTENTE F 35 F - 1 CAF 168
253 PANGLOSSE JOHAN 00:51:36 SEM M 92 SEM 48
254 JOSEPH MYLENE 00:51:37 V2F CSSDA F 36 F - 5 V2F 315
255 FESSIN OLIVIER 00:51:42 V1M M 67 V1M 301
256 TRULES CLAUDINE 00:51:43 V2F F 37 F - 6 V2F 423
257 MARIE AURELIEN 00:51:44 SEM M 93 SEM 225
258 LAIBE IVANE 00:51:44 V2M M 43 V2M 412
259 MAUNIER Catherine 00:51:45 V1M M 68 V1M 728
260 BOUTET SUZETTE 00:51:45 V2F DENIV F 38 F - 7 V2F 323
261 DEGRENDEL BENOIT 00:51:47 V1M M 69 V1M 83
262 DORO YANNICK 00:51:48 V1M M 70 V1M 357
263 BOYER LUCIE ANNE 00:51:49 SEF STASA F 39 F - 17 SEF 333
264 NAS DE TOURRIS EMMANUELLE 00:51:51 V1F DENIV F 40 F - 11 V1F 40
265 PERRAIN DAVID 00:51:59 V1M M 71 V1M 112
266 LEBEAU KARIM 00:51:59 SEM M 94 SEM 338
267 HOAREAU ANIELLE 00:52:05 V2F F 41 F - 8 V2F 119
268 DUBERNET ARTHUR 00:52:06 SEM M 95 SEM 401
269 GARRIGUES BRICE 00:52:10 SEM M 96 SEM 140
270 BARAZER PIERRE 00:52:12 V1M M 72 V1M 431
271 DUPOUY ALIZeE 00:52:12 SEF RUN O2 974 F 42 F - 18 SEF 72
272 HAUDEGOND ETIENNE 00:52:13 V2M M 44 V2M 391
273 MERCIER MATHIEU 00:52:24 CAM M 6 CAM 475
274 BIGUENA SYLVAIN 00:52:27 V3M OUESTRAIL M 6 V3M 121
275 MONGENDRE TONY 00:52:28 V1M STASA M 73 V1M 451
276 NALEM IDRISS 00:52:33 SEM TPC M 97 SEM 117
277 SCHLITTER NICOLAS 00:52:44 SEM M 98 SEM 229
278 LAURET CHARLES 00:52:48 SEM M 99 SEM 130
279 GALMAR NICOLAS 00:52:50 SEM M 100 SEM 30
280 ROQUEBERT LOUISE 00:53:03 CAF F 43 F - 2 CAF 485
281 MOISAN ARNAUD 00:53:05 SEM M 101 SEM 322
282 RONDET CHRISTOPHE 00:53:06 V1M M 74 V1M 353
283 DECUPERE JEAN CHRISTOPHE 00:53:10 V2M M 45 V2M 176
284 TURBY KEVIN 00:53:11 SEM M 102 SEM 385
285 GOMARD YANN 00:53:11 SEM M 103 SEM 172
286 JAGAR MATHIEU 00:53:14 SEM M 104 SEM 268
287 ROBERT CORINNE 00:53:16 V1F F 44 F - 12 V1F 183
288 ROUAULT STePHANE 00:53:21 SEM M 105 SEM 372
289 DESSALLES YANNICK 00:53:22 V1M M 75 V1M 275
290 RAOUX JULIE 00:53:23 SEF F 45 F - 19 SEF 287
291 EVRIN NICOLAS 00:53:26 SEM M 106 SEM 21
292 NATIVEL PIERRE 00:53:28 SEM M 107 SEM 292
293 PADER KORENTIN 00:53:31 JUM M 5 JUM 467
294 MOREL LUDOVIC 00:53:33 ESM M 5 ESM 6
295 TOINETTE ALEXANDRE 00:53:34 SEM M 108 SEM 89
296 CATHERINE PATRICE 00:53:34 SEM M 109 SEM 435
297 THEVENIN JOSEPH EMMANUEL 00:54:01 V2M M 46 V2M 87
298 TATEL CYRIL JEAN 00:54:03 V1M M 76 V1M 284
299 KOE eRIC 00:54:06 V1M M 77 V1M 207
300 RIBOTH GEORGES MARIE 00:54:11 V2M CSSDA M 47 V2M 162
301 ALEZAN THOMAS 00:54:12 SEM M 110 SEM 122
302 FIGUESTER JEAN PAUL MICHEL 00:54:20 V3M ACSP M 7 V3M 377
303 CHAUSSALET THOMAS 00:54:25 SEM M 111 SEM 374
304 MOMBERT VANESSA 00:54:26 SEF AJAC F 46 F - 20 SEF 16
305 JANCANA ALEXANDRE 00:54:32 SEM M 112 SEM 454
306 DEPECHE JEAN YANN 00:54:34 V1M M 78 V1M 80
307 LAFOUGE NICOLAS 00:54:40 V1M M 79 V1M 445
308 ENILORAC JEAN MICHEL 00:54:50 V4M M 1 V4M 473
309 DEJEAN FREDERIC 00:54:51 V1M M 80 V1M 348
310 HOARAU CAROLE 00:54:55 V1F F 47 F - 13 V1F 164
311 BOURHIS LAETITIA 00:55:05 V1F F 48 F - 14 V1F 53
312 LEGRAND VINCENT 00:55:05 V1M M 81 V1M 196
313 DESHENRY CYRIL 00:55:06 SEM M 113 SEM 215
314 ROUGE FRANcOIS 00:55:12 V2M M 48 V2M 441
315 SIHOU RICHELIN 00:55:21 V3M CSSDA M 8 V3M 214
316 MUSSARD LAeTITIA 00:55:25 SEF F 49 F - 21 SEF 274
317 BOUILLOUX CASSANDRA 00:55:28 ESF RCSD F 50 F - 4 ESF 81
318 BERNEDE YANNICK 00:55:44 V1M M 82 V1M 94
319 HOARAU DAVID 00:55:45 V2M M 49 V2M 68
320 JEAN BAPTITSE VALeRIE 00:55:47 V1F AB F 51 F - 15 V1F 228
321 BOURON PATRICK 00:55:47 V3M M 9 V3M 51
322 CASTEL JEAN FRANcOIS 00:55:55 V2M M 50 V2M 46
323 BILLAUD GILBERTE 00:56:01 V2F RDB F 52 F - 9 V2F 76
324 GASTRIN BRUNO 00:56:03 SEM M 114 SEM 251
325 FONTAINE PATRICE 00:56:07 V1M M 83 V1M 418
326 CASTELAIN MARIE 00:56:08 SEF F 53 F - 22 SEF 493
327 MEROUX VINCIANE 00:56:09 SEF F 54 F - 23 SEF 481
328 GRONDIN ISNELLE 00:56:13 V1F F 55 F - 16 V1F 368
329 CHOUZIER FABIEN 00:56:17 V1M M 84 V1M 58
330 BEGUE DAVID 00:56:28 V1M M 85 V1M 279
331 MASCAREL VIRGINIE 00:56:29 SEF STASA F 56 F - 24 SEF 450
332 MARIN GWeNOLA 00:56:32 SEF F 57 F - 25 SEF 243
333 SINIMALE LYNDA 00:56:36 V1F F 58 F - 17 V1F 74
334 HOAREAU BeATRICE 00:56:39 V2F F 59 F - 10 V2F 3
335 BEGUE BERTRAND 00:56:41 SEM M 115 SEM 449
336 SAADA HeLeNE 00:56:42 SEF F 60 F - 26 SEF 50
337 LAFITTE GUY 00:56:47 V2M M 51 V2M 217
338 BARUTAUT HENRI 00:56:53 V2M M 52 V2M 52
339 PERRET JEAN SeBASTIEN 00:57:02 V1M M 86 V1M 123
340 LE ROY SOPHIE 00:57:03 V1F CASM F 61 F - 18 V1F 362
341 MOUSSINAT YOHANN 00:57:05 SEM M 116 SEM 286
342 GACE HUGUETTE 00:57:08 V1F F 62 F - 19 V1F 159
343 NEGRI NADEGE 00:57:09 V1F F 63 F - 20 V1F 59
344 ASSING ALICE 00:57:10 V1F RUN O2 974 F 64 F - 21 V1F 438
345 RENAUD STEPHANIE 00:57:19 V1F F 65 F - 22 V1F 106
346 SADZOUTE JEAN IDRISS 00:57:24 V1M M 87 V1M 299
347 BENARD EVELYNE 00:57:26 V1F F 66 F - 23 V1F 468
348 BACHEL BRUNO 00:57:34 V2M M 53 V2M 313
349 LASOUR EMILIE 00:57:38 SEF F 67 F - 27 SEF 259
350 GARET CATHERINE 00:57:43 V2F F 68 F - 11 V2F 8
351 PARSOURAMIN LATCHIMY JULIEN 00:57:46 SEM M 117 SEM 192
352 BLAS MAURICE 00:57:48 V2M M 54 V2M 12
353 MOITON MARIE PIERRE 00:57:49 V1F F 69 F - 24 V1F 175
354 SALESSES ERIC 00:57:49 V2M M 55 V2M 174
355 MAUGER CORALIE 00:57:52 ESF F 70 F - 5 ESF 350
356 DE LA HOGUE ELODIE 00:57:55 SEF F 71 F - 28 SEF 77
357 LOMBARD JULIEN 00:58:03 SEM M 118 SEM 405
358 UGUEN JUSTINE 00:58:12 SEF F 72 F - 29 SEF 78
359 CLOAREC DAMIEN 00:58:13 SEM M 119 SEM 69
360 SIFFERT JEAN FRANcOIS 00:58:15 SEM M 120 SEM 281
361 MELANIE LEBRET 00:58:19 SEF F 73 F - 30 SEF 407
362 TECHER JEAN FRANcOIS 00:58:26 V2M M 56 V2M 205
363 MARIE CORALIE 00:58:33 SEF F 74 F - 31 SEF 184
364 BERREBI SERGE 00:58:36 V2M M 57 V2M 297
365 GEROSA JULIE 00:58:39 SEF F 75 F - 32 SEF 227
366 PAQUIRY EDDY 00:58:49 SEM M 121 SEM 211
367 UGUEN GUILLAUME 00:58:54 SEM M 122 SEM 442
368 DABRETON DAMIEN 00:59:04 ESM M 6 ESM 85
369 DUBARD GUILLAUME 00:59:11 ESM M 7 ESM 210
370 DALLEAU ANTHONY 00:59:14 SEM M 123 SEM 92
371 VILPONT DIDIER 00:59:18 SEM M 124 SEM 4
372 MENET GILDAS 00:59:18 V1M M 88 V1M 434
373 VOLCK THIERRY 00:59:35 V4M M 2 V4M 132
374 PONCE DAVID 00:59:36 V2M M 58 V2M 430
375 JOSIA DOMINIQUE 00:59:38 V3M M 10 V3M 14
376 DUPOUY CAMILLE 00:59:39 SEF F 76 F - 33 SEF 125
377 DEGERUS GISeLE 00:59:41 V3F F 77 F - 2 V3F 95
378 MAUGIS NATHALIE 00:59:44 SEF F 78 F - 34 SEF 67
379 MERCIER GEOFFROY 00:59:45 V2M M 59 V2M 474
380 RIVIeRE FReDeRIC 00:59:47 V1M M 89 V1M 96
381 PATON OLIVIER 00:59:50 V1M M 90 V1M 379
382 GIGAN VIRGINIE 00:59:55 V1F F 79 F - 25 V1F 424
383 LAI ONG TEUNG FABIENNE 01:00:00 SEF F 80 F - 35 SEF 358
384 DECOUPES ReMY 01:00:01 SEM M 125 SEM 298
385 DIANE SONIA 01:00:07 V2F STASA F 81 F - 12 V2F 453
386 RIEANT ELENA 01:00:08 SEF F 82 F - 36 SEF 158
387 PERSEE GERTRUDE 01:00:08 SEF F 83 F - 37 SEF 370
388 CHAUVET DAVID 01:00:15 V1M M 91 V1M 64
389 RAMOUCHE MATHIEU 01:00:37 SEM M 126 SEM 255
390 BOUCICAUD FLORENCE 01:00:45 V1F F 84 F - 26 V1F 115
391 BADAT Imran 01:00:45 SEM M 127 SEM 733
392 MEKACHERA NADIA 01:00:46 SEF DENIV F 85 F - 38 SEF 307
393 CHANE SEE CHU ROLAND 01:01:09 V4M CAPC M 3 V4M 492
394 CHARLET YANN 01:01:19 SEM M 128 SEM 494
395 PADER JEAN PIERRE 01:01:20 V2M M 60 V2M 466
396 BERNIOT EMMANUELLE 01:01:22 V2F F 86 F - 13 V2F 102
397 FOREST JEAN PHILIPPE 01:01:23 V2M M 61 V2M 103
398 ASERVADOMPOULe NADeGE 01:01:27 SEF F 87 F - 39 SEF 262
399 MOUTIEN CYPRIEN 01:01:27 ESM M 8 ESM 462
400 SOUCRAMANIEN HARRY 01:01:29 V1M M 92 V1M 380
401 GUILLARD NICOLAS 01:01:30 V2M M 62 V2M 382
402 ESPEL MATHIEU 01:01:43 SEM M 129 SEM 163
403 HIVANHOE TEDDY 01:01:43 V1M M 93 V1M 150
404 ROSINE MARIE 01:01:45 SEF F 88 F - 40 SEF 2
405 MARTIN DELPHINE 01:01:48 SEF STASA F 89 F - 41 SEF 452
406 AH SANE EDDY 01:01:49 V1M M 94 V1M 116
407 LERAY HeLeNE 01:01:53 SEF F 90 F - 42 SEF 326
408 DAURON EMELINE 01:01:59 SEF F 91 F - 43 SEF 28
409 BILLAUD WILSON 01:02:01 V1M M 95 V1M 375
410 DJERIDI NADIA 01:02:03 V2F F 92 F - 14 V2F 63
411 AH TECK GUILLAUME 01:02:12 CAM M 7 CAM 312
412 AH TECK CHRISTIAN 01:02:12 V2M M 63 V2M 310
413 GUEZELLO ELYS 01:02:19 SEF F 93 F - 44 SEF 193
414 DELOURME ANNEY SHANTI 01:02:22 SEF F 94 F - 45 SEF 156
415 TOULCANON ALINE 01:02:25 V1F F 95 F - 27 V1F 347
416 CARRON LEONUS KLEBERT 01:02:27 V3M M 11 V3M 88
417 LOGORAS Dalina 01:02:36 V1F F 96 F - 28 V1F 731
418 RAVINET MeLANIE 01:02:38 V1F F 97 F - 29 V1F 97
419 MONTROUGE VALERIE 01:02:40 V1F TCSA F 98 F - 30 V1F 247
420 LALANDE NICOLAS 01:02:47 V1M M 96 V1M 429
421 LAMY PAUL 01:02:48 SEM M 130 SEM 238
422 PAYEN JEAN PIERRE 01:02:50 V4M TCSA M 4 V4M 248
423 DE NEEF AURIANE 01:02:53 SEF F 99 F - 46 SEF 237
424 TURBY DAVID 01:02:53 SEM M 131 SEM 257
425 MARGUERITE DAVID 01:02:56 V1M M 97 V1M 260
426 DEMAILLY GHISLAIN 01:03:08 V4M M 5 V4M 197
427 FERRERE LINE MAY 01:03:11 V2F RUN ODYSSEA F 100 F - 15 V2F 363
428 HANNEQUIN GUILLAUME 01:03:19 SEM M 132 SEM 189
429 ROQUEBERT BENEDICTE 01:03:30 V1F F 101 F - 31 V1F 484
430 LEOST CHRISTELLE 01:03:30 V1F F 102 F - 32 V1F 290
431 SARRET NICOLAS 01:03:34 V1M M 98 V1M 343
432 AURE MARYSE 01:03:46 V1F F 103 F - 33 V1F 49
433 AH TEC CATHERINE 01:04:05 SEF F 104 F - 47 SEF 61
434 DAUMAS ARMELLE 01:04:23 SEF CASM F 105 F - 48 SEF 73
435 BAPTISTE MURIELLE 01:04:25 SEF F 106 F - 49 SEF 359
436 BLAS CHRISTEL 01:04:49 V2F F 107 F - 16 V2F 114
437 CHAMBRY HENRIETTE 01:04:53 V1F F 108 F - 34 V1F 488
438 KROON STACY 01:05:24 SEF F 109 F - 50 SEF 447
439 SERVAN LAURENCE 01:05:28 SEF F 110 F - 51 SEF 397
440 HUBERT DEBORAH 01:05:53 SEF F 111 F - 52 SEF 356
441 DOURAGUIA PATRICIA 01:05:53 V1F F 112 F - 35 V1F 364
442 HOARAU Joseph Noe 01:06:03 V2M M 64 V2M 725
443 DE LA HOGUE ANICE 01:06:21 SEF OUESTRAIL F 113 F - 53 SEF 70
444 DAOULAS GAELLE 01:07:22 SEF F 114 F - 54 SEF 178
445 GRONDIN MARIE ELISE 01:07:35 V2F F 115 F - 17 V2F 20
446 ROQUEJOFFRE NATHALIE 01:07:39 V1F F 116 F - 36 V1F 42
447 THOMAS CAROLE 01:07:46 V1F F 117 F - 37 V1F 54
448 STAMPA PHILIPPE 01:07:46 SEM M 133 SEM 381
449 CARBONI LAURENCE 01:07:47 SEF F 118 F - 55 SEF 390
450 BAUCHARD JULIETTE 01:08:05 SEF F 119 F - 56 SEF 26
451 RAVELET ISABELLE 01:08:30 V1F F 120 F - 38 V1F 388
452 DELION CLAIRE 01:08:39 SEF DENIV F 121 F - 57 SEF 191
453 PAYET LAURENT 01:08:50 SEM M 134 SEM 392
454 ROBERT KAREN 01:09:01 SEF F 122 F - 58 SEF 188
455 AH YONE DAVID 01:09:08 SEM M 135 SEM 278
456 MORIN MATHILDE 01:09:24 SEF F 123 F - 59 SEF 5
457 FONTAINE STELLA 01:09:24 SEF F 124 F - 60 SEF 7
458 IVOULE FABIENNE 01:09:39 V1F F 125 F - 39 V1F 124
459 DA COSTA CHARMANTE 01:09:46 SEF F 126 F - 61 SEF 230
460 LAGOURDE MICKAEL 01:09:46 SEM M 136 SEM 415
461 COSNIER CHARLOTTE 01:10:04 SEF F 127 F - 62 SEF 22
462 HO LU ADELINE 01:10:04 SEF F 128 F - 63 SEF 369
463 REBIARD PAYET SYLVIE 01:10:20 V2F F 129 F - 18 V2F 384
464 MARIE EVELYNE 01:10:32 V2F F 130 F - 19 V2F 185
465 TRULES AURELIE 01:10:39 SEF F 131 F - 64 SEF 476
466 MALIe ANNE 01:10:52 V1F F 132 F - 40 V1F 134
467 COUVE NELLY 01:10:53 V1F F 133 F - 41 V1F 234
468 PENNEC AURELIE 01:10:53 SEF F 134 F - 65 SEF 180
469 LE CARDIET eP. BALOUKJY SANDRINE 01:12:08 V1F F 135 F - 42 V1F 18
470 PICARD ARNAUD 01:12:08 V1M M 99 V1M 23
471 LOZE CHRISTOPHE 01:14:20 V2M M 65 V2M 459
472 MIQUEL ALICE 01:14:43 SEF F 136 F - 66 SEF 60
473 PORTHOS CATHERINE 01:15:09 V1F F 137 F - 43 V1F 291
474 RIBOTTE BERNARD 01:15:10 V2M M 66 V2M 120
475 IFANGOUSINE AMELIE 01:15:59 V1F F 138 F - 44 V1F 105
476 TALIMBOLA AUDREY 01:16:03 SEF F 139 F - 67 SEF 100
477 RIVIeRE ARMELLE 01:16:21 JUF F 140 F - 1 JUF 293
478 GUIRAUD JEAN 01:17:23 V3M M 12 V3M 65
479 DABEE MAHENDRASINGH 01:20:21 V4M M 6 V4M 398
480 LAIBE PATRICIA 01:22:28 V2F F 141 F - 20 V2F 413
481 GEORGET MARIE THeReSE 01:23:02 V5F CSSDA F 142 F - 1 V5F 198
482 COUROUNADIN MOUNY JEAN RENE 01:24:28 V1M M 100 V1M 79
483 GUILLARD MURIELLE 01:24:29 V1F F 143 F - 45 V1F 36
484 GUILLARD EMMA 01:27:24 JUF F 144 F - 2 JUF 201
485 HUGUET ARNAUD 01:30:05 V1M M 101 V1M 427


ReferencementCe site est listé dans la catégorie Sport : Sports extrêmes Dictionnaire
| Accueil | La Réunion  Vue du ciel | Météo | Cyclones | Volcan | Cirques de Mafate , Cilaos , Salazie | Photos Randonnées | Randonnées Réunion: Randos Espiègle , Courses montagne | Diagonale des Fous |  Marathon des Sables | Voyages Les stats du site | Fonds écran | Plan du site | Blog de runraid | Galerie photos Sport Réunion |